TimeAKST,TemperatureF,Dew PointF,Humidity,Sea Level PressureIn,VisibilityMPH,Wind Direction,Wind SpeedMPH,Gust SpeedMPH,PrecipitationIn,Events,Conditions,WindDirDegrees,DateUTC
12:19 AM,30.2,26.6,86,29.08,10.0,WNW,10.4,-,N/A,,Scattered Clouds,300,2013-01-13 09:19:00
12:29 AM,30.2,26.6,86,29.08,10.0,WNW,16.1,-,N/A,,Mostly Cloudy,290,2013-01-13 09:29:00
12:53 AM,28.9,26.1,89,29.07,10.0,WNW,10.4,-,N/A,,Scattered Clouds,290,2013-01-13 09:53:00
1:08 AM,28.4,26.6,93,29.11,10.0,WNW,13.8,20.7,N/A,,Mostly Cloudy,300,2013-01-13 10:08:00
1:53 AM,30.0,26.1,85,29.11,10.0,WNW,13.8,-,N/A,,Overcast,290,2013-01-13 10:53:00
3:53 AM,30.0,25.0,82,29.19,10.0,WNW,12.7,-,N/A,,Overcast,300,2013-01-13 12:53:00
4:53 AM,28.9,23.0,78,29.23,10.0,WNW,12.7,21.9,N/A,,Overcast,300,2013-01-13 13:53:00
5:53 AM,28.9,21.9,75,29.26,10.0,WNW,13.8,20.7,N/A,,Overcast,300,2013-01-13 14:53:00
6:35 AM,28.4,21.2,74,29.32,10.0,NW,12.7,-,N/A,,Overcast,310,2013-01-13 15:35:00
6:53 AM,28.9,21.9,75,29.29,10.0,NW,17.3,24.2,N/A,,Overcast,310,2013-01-13 15:53:00
7:53 AM,28.9,21.9,75,29.30,10.0,NW,13.8,-,N/A,,Overcast,320,2013-01-13 16:53:00
8:20 AM,28.4,23.0,80,29.36,10.0,NW,15.0,-,N/A,,Overcast,310,2013-01-13 17:20:00
8:43 AM,28.4,24.8,86,29.37,10.0,NW,16.1,-,N/A,,Overcast,320,2013-01-13 17:43:00
8:53 AM,28.9,23.0,78,29.34,10.0,NW,13.8,-,N/A,,Overcast,320,2013-01-13 17:53:00
9:53 AM,28.9,23.0,78,29.37,10.0,NNW,11.5,-,N/A,,Overcast,330,2013-01-13 18:53:00
10:53 AM,28.9,21.0,72,29.39,10.0,NNW,10.4,-,N/A,,Overcast,340,2013-01-13 19:53:00
11:53 AM,28.9,21.9,75,29.39,10.0,NNW,9.2,-,N/A,,Overcast,330,2013-01-13 20:53:00
12:53 PM,30.0,21.0,69,29.41,10.0,NNW,9.2,-,N/A,,Overcast,340,2013-01-13 21:53:00
1:53 PM,30.0,19.9,66,29.40,10.0,NNW,8.1,-,N/A,,Overcast,340,2013-01-13 22:53:00
2:53 PM,28.9,21.9,75,29.40,10.0,NNW,10.4,-,N/A,,Overcast,340,2013-01-13 23:53:00
3:53 PM,28.9,21.9,75,29.41,10.0,NNW,10.4,-,N/A,,Overcast,330,2013-01-14 00:53:00
4:31 PM,28.4,23.0,80,29.44,8.0,NNW,10.4,-,N/A,,Overcast,340,2013-01-14 01:31:00
4:39 PM,28.4,21.2,74,29.44,10.0,NNW,10.4,-,N/A,,Overcast,340,2013-01-14 01:39:00
4:53 PM,28.9,23.0,78,29.40,10.0,North,10.4,-,N/A,,Overcast,350,2013-01-14 01:53:00
5:16 PM,28.4,21.2,74,29.43,10.0,North,9.2,19.6,N/A,,Overcast,360,2013-01-14 02:16:00
5:53 PM,28.0,21.0,75,29.41,10.0,NNW,10.4,-,N/A,,Overcast,340,2013-01-14 02:53:00
6:53 PM,28.0,19.0,69,29.43,10.0,NNW,10.4,-,N/A,,Overcast,340,2013-01-14 03:53:00
7:53 PM,27.0,19.9,75,29.41,10.0,North,15.0,20.7,N/A,,Overcast,360,2013-01-14 04:53:00
8:53 PM,26.1,19.0,75,29.42,10.0,NNW,12.7,-,N/A,,Overcast,330,2013-01-14 05:53:00
9:53 PM,26.1,19.0,75,29.42,10.0,NW,13.8,-,N/A,,Overcast,320,2013-01-14 06:53:00
10:53 PM,26.1,19.0,75,29.41,10.0,NW,15.0,-,N/A,,Overcast,320,2013-01-14 07:53:00
11:53 PM,26.1,19.0,75,29.42,10.0,NNW,13.8,-,N/A,,Overcast,330,2013-01-14 08:53:00